Location: Firdgum
(53.2488°N, 5.5615°E)
Time: 15:59:00
(UTC+00:00)

CZ-2C R/B - Pass Details

Date: 08 December 2019
Orbit: 639 x 705 km, 98.4° (Epoch: 20 January)

Event Time Altitude Azimuth Distance (km) Brightness Sun altitude
Rises 06:22:59 0° 172° (S) 3,054 7.6 -10.4°
Reaches altitude 10° 06:25:13 10° 176° (S) 2,150 6.7 -10.1°
Maximum altitude 06:29:54 63° 257° (WSW) 786 3.9 -9.5°
Drops below altitude 10° 06:34:40 10° 339° (NNW) 2,188 5.9 -8.9°
Sets 06:36:59 0° 343° (NNW) 3,113 6.7 -8.6°
Enters shadow 06:37:00 - 343° (NNW) 3,122 6.7 -8.6°
